Change the Weather History Date:

Friday, November 1, 2013

  Actual Average Record
Temperature  
Mean Temperature 40 °F 38 °F  
Max Temperature 43 °F 46 °F 74 °F (1933)
Min Temperature 36 °F 29 °F 10 °F (1951)
Degree Days  
Heating Degree Days 25 27  
Month to date heating degree days 25 27  
Since 1 July heating degree days 1127 1120  
Cooling Degree Days 0 0  
Month to date cooling degree days 0 0  
Year to date cooling degree days 281 261  
Moisture  
Dew Point 38 °F    
Average Humidity 95    
Maximum Humidity 100    
Minimum Humidity 89    
Precipitation  
Precipitation 0.05 in 0.07 in 1.40 in (1945)
Month to date precipitation 0.05 0.07  
Year to date precipitation 33.16 28.19  
Snow  
Snow 0.00 in - 2.00 in (1911)
Month to date snowfall 0.0  
Since 1 July snowfall 2.2  
Since 1 September snowfall 2.2  
Snow Depth 0.00 in    
Sea Level Pressure  
Sea Level Pressure 29.56 in    
Wind  
Wind Speed 5 mph (NW)    
Max Wind Speed 13 mph    
Max Gust Speed 20 mph    
Visibility 9 miles    
Events Rain    
T = Trace of Precipitation, MM = Missing Value Source: NWS Daily Summary

Daily Weather History Graph

Daily Weather History Graph

Search for Another Location

Airport or City:

Trip Planner

Search our weather history database for the weather conditions in past years. The results will help you decide how hot, cold, wet, or windy it might be!

Date:

Astronomy

Nov. 01, 2013 Rise Set
Actual Time 7:38 AM CDT 5:44 PM CDT
Civil Twilight 7:07 AM CDT 6:15 PM CDT
Nautical Twilight 6:31 AM CDT 6:50 PM CDT
Astronomical Twilight 5:57 AM CDT 7:24 PM CDT
Moon 5:24 AM CDT (11/1) 4:41 PM CDT (11/1)
Length of Visible Light 11h 08m
Length of Day
10h 06m
Waning Crescent, 4% of the Moon is Illuminated
Nov 1
Waning Crescent
Nov 3
New
Nov 9
First Quarter
Nov 17
Full
Nov 25
Last Quarter

Hourly Weather History & Observations

Time (CDT) Temp. Windchill Dew Point Humidity Pressure Visibility Wind Dir Wind Speed Gust Speed Precip Events Conditions
12:53 AM 43.0 °F 37.2 °F 42.1 °F 97% 29.25 in 10.0 mi NNW 10.4 mph - 0.00 in Rain Light Rain
1:53 AM 43.0 °F 39.5 °F 41.0 °F 93% 29.27 in 10.0 mi NW 5.8 mph - 0.01 in   Overcast
2:53 AM 42.1 °F 38.4 °F 41.0 °F 96% 29.29 in 10.0 mi NW 5.8 mph - N/A   Overcast
3:53 AM 42.1 °F 38.4 °F 41.0 °F 96% 29.31 in 9.0 mi NW 5.8 mph 17.3 mph N/A   Overcast
4:45 AM 42.8 °F 37.5 °F 39.2 °F 87% 29.31 in 10.0 mi NW 9.2 mph - 0.00 in   Overcast
4:53 AM 42.1 °F 36.6 °F 39.9 °F 92% 29.34 in 10.0 mi NW 9.2 mph 16.1 mph 0.00 in   Overcast
5:28 AM 42.8 °F 38.0 °F 39.2 °F 87% 29.34 in 10.0 mi WNW 8.1 mph - N/A   Overcast
5:53 AM 42.1 °F 36.1 °F 39.9 °F 92% 29.37 in 10.0 mi WNW 10.4 mph - N/A   Overcast
6:42 AM 41.0 °F 34.3 °F 39.2 °F 93% 29.37 in 7.0 mi WNW 11.5 mph 18.4 mph N/A   Overcast
6:53 AM 41.0 °F 35.2 °F 39.0 °F 93% 29.39 in 6.0 mi WNW 9.2 mph - N/A   Overcast
7:53 AM 39.9 °F 34.5 °F 39.0 °F 97% 29.43 in 9.0 mi WNW 8.1 mph - N/A   Overcast
8:53 AM 39.9 °F 33.4 °F 37.9 °F 93% 29.46 in 5.0 mi WNW 10.4 mph - N/A   Overcast
9:53 AM 39.9 °F 35.1 °F 37.9 °F 93% 29.48 in 7.0 mi WNW 6.9 mph - N/A   Overcast
10:53 AM 39.9 °F 35.1 °F 37.9 °F 93% 29.51 in 6.0 mi NW 6.9 mph - N/A   Overcast
11:53 AM 39.9 °F 36.7 °F 37.9 °F 93% 29.53 in 10.0 mi Variable 4.6 mph - N/A   Overcast
12:20 PM 39.2 °F 33.6 °F 37.4 °F 93% 29.50 in 10.0 mi NW 8.1 mph - N/A   Overcast
12:53 PM 39.9 °F 36.7 °F 37.0 °F 89% 29.54 in 10.0 mi NNW 4.6 mph - N/A   Overcast
1:01 PM 39.2 °F - 37.4 °F 93% 29.51 in 10.0 mi Calm Calm - N/A   Overcast
1:33 PM 39.2 °F 37.0 °F 37.4 °F 93% 29.52 in 10.0 mi Variable 3.5 mph - N/A   Overcast
1:53 PM 39.9 °F 37.8 °F 37.0 °F 89% 29.56 in 8.0 mi NNW 3.5 mph - N/A   Overcast
2:08 PM 39.2 °F - 37.4 °F 93% 29.53 in 2.5 mi Calm Calm - 0.00 in Rain Light Rain
2:41 PM 39.2 °F 35.9 °F 37.4 °F 93% 29.55 in 4.0 mi North 4.6 mph - 0.02 in Rain Light Rain
2:53 PM 39.0 °F 36.8 °F 37.9 °F 96% 29.59 in 8.0 mi NNW 3.5 mph - 0.02 in   Overcast
3:53 PM 39.0 °F - 37.0 °F 93% 29.62 in 9.0 mi Calm Calm - 0.01 in Rain Light Rain
4:04 PM 39.2 °F - 37.4 °F 93% 29.59 in 5.0 mi Calm Calm - 0.01 in Rain Light Rain
4:40 PM 39.2 °F 37.0 °F 37.4 °F 93% 29.60 in 6.0 mi NNW 3.5 mph - 0.01 in Rain Light Rain
4:53 PM 39.0 °F - 37.0 °F 93% 29.64 in 6.0 mi Calm Calm - 0.01 in Rain Light Rain
5:53 PM 39.0 °F - 37.9 °F 96% 29.67 in 9.0 mi Calm Calm - 0.00 in Rain Light Rain
6:07 PM 39.2 °F - 37.4 °F 93% 29.63 in 10.0 mi Calm Calm - 0.00 in Rain Light Rain
6:38 PM 39.2 °F - 37.4 °F 93% 29.65 in 10.0 mi Calm Calm - 0.00 in   Overcast
6:53 PM 39.0 °F 36.8 °F 37.0 °F 93% 29.69 in 10.0 mi Variable 3.5 mph - 0.00 in Rain Light Rain
7:36 PM 39.2 °F 37.0 °F 37.4 °F 93% 29.67 in 10.0 mi NW 3.5 mph - 0.00 in   Overcast
7:53 PM 39.0 °F 36.8 °F 37.0 °F 93% 29.71 in 10.0 mi NW 3.5 mph - 0.00 in   Overcast
8:16 PM 39.2 °F 35.0 °F 37.4 °F 93% 29.68 in 4.0 mi NW 5.8 mph - 0.00 in Rain Light Rain
8:46 PM 37.4 °F 33.8 °F 35.6 °F 93% 29.69 in 10.0 mi North 4.6 mph - 0.01 in   Overcast
8:53 PM 37.9 °F 34.4 °F 36.0 °F 93% 29.73 in 10.0 mi NNW 4.6 mph - 0.01 in   Overcast
9:26 PM 37.4 °F - 35.6 °F 93% 29.70 in 10.0 mi Calm Calm - N/A   Overcast
9:37 PM 37.4 °F 34.9 °F 35.6 °F 93% 29.70 in 10.0 mi Variable 3.5 mph - N/A   Overcast
9:44 PM 37.4 °F 32.8 °F 35.6 °F 93% 29.71 in 10.0 mi NW 5.8 mph - N/A   Overcast
9:53 PM 37.9 °F 33.5 °F 36.0 °F 93% 29.75 in 10.0 mi NNW 5.8 mph - N/A   Overcast
10:15 PM 37.4 °F 33.8 °F 35.6 °F 93% 29.72 in 9.0 mi North 4.6 mph - 0.00 in Rain Light Rain
10:53 PM 37.0 °F 31.6 °F 35.1 °F 93% 29.77 in 10.0 mi North 6.9 mph - 0.00 in   Overcast
11:08 PM 35.6 °F 32.8 °F 35.6 °F 100% 29.73 in 10.0 mi North 3.5 mph - N/A   Overcast
11:17 PM 35.6 °F - 35.6 °F 100% 29.73 in 10.0 mi Calm Calm - N/A   Overcast
11:53 PM 37.0 °F - 35.1 °F 93% 29.77 in 10.0 mi Calm Calm - N/A   Overcast